Location: *
(46.1333°S, 161.2167°W)
Time: 05:56:33
(UTC+00:00)

Radarsat Rocket - Visible Passes

Search period start: 20 October 2020 00:00
Search period end: 30 October 2020 00:00
Orbit: 933 x 1492 km, 100.6° (Epoch: 18 October)

Date Brightness Start Highest point End Pass type
(mag) Time Alt. Az. Time Alt. Az. Time Alt. Az.
20 Oct 5.8 06:02:17 10° S 06:10:30 52° WSW 06:17:58 10° NW visible
20 Oct 7.6 07:51:52 10° S 07:56:23 16° SW 08:00:47 10° WSW visible
20 Oct 7.7 13:04:07 10° ESE 13:08:00 14° SE 13:11:56 10° S visible
20 Oct 6.1 14:46:04 10° NE 14:53:42 46° ESE 15:01:49 10° S visible
21 Oct 5.5 05:49:13 10° SSE 05:57:35 61° WSW 06:05:08 10° NW visible
21 Oct 7.4 07:38:31 10° S 07:43:43 18° SW 07:48:42 10° W visible
21 Oct 7.8 12:52:26 10° SE 12:55:22 12° SE 12:58:19 10° SSE visible
21 Oct 6.4 14:33:24 10° ENE 14:40:51 39° ESE 14:48:43 10° S visible
22 Oct 7.3 07:25:15 10° S 07:31:01 21° SW 07:36:29 10° W visible
22 Oct 8.0 12:41:21 10° SE 12:42:46 10° SSE 12:44:11 10° SSE visible
22 Oct 6.7 14:20:50 10° ENE 14:28:02 34° SE 14:35:34 10° S visible
23 Oct 7.1 07:12:01 10° S 07:18:17 24° SW 07:24:10 10° W visible
23 Oct 6.9 14:08:21 10° ENE 14:15:15 30° SE 14:22:24 10° S visible
24 Oct 6.9 06:58:49 10° S 07:05:31 27° SW 07:11:45 10° WNW visible
24 Oct 7.1 13:55:57 10° E 14:02:30 26° SE 14:09:12 10° S visible
25 Oct 6.7 06:45:40 10° S 06:52:44 31° SW 06:59:14 10° WNW visible
25 Oct 7.3 13:43:39 10° E 13:49:46 23° SE 13:55:59 10° S visible
26 Oct 6.4 06:32:32 10° S 06:39:55 36° SW 06:46:38 10° WNW visible
26 Oct 7.9 08:23:39 10° SSW 08:25:18 11° SSW 08:26:55 10° SW visible
26 Oct 7.5 13:31:28 10° E 13:37:03 20° SE 13:42:43 10° S visible
27 Oct 6.1 06:19:24 10° S 06:27:03 42° WSW 06:33:57 10° NW visible
27 Oct 7.8 08:09:41 10° SSW 08:12:40 12° SW 08:15:34 10° WSW visible
27 Oct 7.7 13:19:23 10° ESE 13:24:22 17° SE 13:29:23 10° S visible
28 Oct 5.8 06:06:19 10° S 06:14:11 49° WSW 06:21:12 10° NW visible
28 Oct 7.7 07:56:08 10° S 08:00:01 14° SW 08:03:45 10° WSW visible
28 Oct 7.8 13:07:27 10° ESE 13:11:41 15° SE 13:15:57 10° S visible
28 Oct 6.1 14:49:33 10° NE 14:57:31 48° ESE 15:05:44 10° S visible
29 Oct 5.5 05:53:14 10° S 06:01:16 57° WSW 06:08:22 10° NW visible
29 Oct 7.5 07:42:44 10° S 07:47:20 16° SW 07:51:43 10° WSW visible
29 Oct 7.9 12:55:44 10° ESE 12:59:03 13° SE 13:02:22 10° SSE visible
29 Oct 6.4 14:36:54 10° NE 14:44:40 42° ESE 14:52:38 10° S visible
